{"data":{"norad_id":45081,"epoch":"2026-05-24T22:28:53.711328Z","epoch_age_seconds":84058,"freshness":"FRESH","line1":"1 45081U 20006AP  26144.93673277  .00073406  00000+0  47139-3 0  9993","line2":"2 45081  53.0490 222.5443 0003435 323.3414  36.7369 15.75593198349102","mean_motion":15.75593198,"eccentricity":0.0003435,"inclination_deg":53.049,"raan_deg":222.5443,"arg_perigee_deg":323.3414,"mean_anomaly_deg":36.7369,"bstar":0.00047139,"rev_number":34910,"period_min":91.394149316453,"perigee_km":340.63500599921,"apogee_km":345.2523884382,"semimajor_km":6721.0806972187,"source":"CELESTRAK","updated_at":"2026-05-25T13:38:16.379820Z"}}